This demonstration page uses our WeatherBlox Daily Observations layout. Learn more.

Left ArrowRight Arrow

38.89511, -77.03637

Hourly Observations for February 26, 2017

Temp ( °F °C ) Dew Point ( °F °C ) Humidity (%) Winds ( mph kmh ) Pressure ( in mb ) Visibility ( mi km ) Precip ( " mm )
12:52 am 00:52 Mostly Cloudy 44 6.7 23 -5 43 43 WNW 18 30 29.89 1012 10 16 0.00 0.00
1:52 am 01:52 Cloudy 42 5.6 23 -5 47 47 WNW 15 24 29.92 1013 10 16 0.00 0.00
2:52 am 02:52 Mostly Cloudy 40 4.4 21 -6.1 47 47 NW 13 20 29.95 1014 10 16 0.00 0.00
3:52 am 03:52 Mostly Cloudy 39 3.9 20 -6.7 46 46 NNW 21 33 29.97 1015 10 16 0.00 0.00
4:52 am 04:52 Partly Cloudy 37 2.8 18 -7.8 46 46 NW 9 15 29.99 1016 10 16 0.00 0.00
5:52 am 05:52 Partly Cloudy 37 2.8 17 -8.3 44 44 WNW 17 28 30.03 1017 10 16 0.00 0.00
6:52 am 06:52 Partly Cloudy 36 2.2 16 -8.9 44 44 NNW 12 19 30.07 1018 10 16 0.00 0.00
7:52 am 07:52 Partly Cloudy 37 2.8 16 -8.9 42 42 WNW 12 19 30.10 1019 10 16 0.00 0.00
8:52 am 08:52 Partly Cloudy 38 3.3 16 -8.9 41 41 NNW 16 26 30.14 1021 10 16 0.00 0.00
9:52 am 09:52 Partly Cloudy 40 4.4 17 -8.3 40 40 NW 16 26 30.15 1021 10 16 0.00 0.00
10:52 am 10:52 Partly Cloudy 43 6.1 19 -7.2 38 38 NW 15 24 30.16 1021 10 16 0.00 0.00
11:52 am 11:52 Partly Cloudy 42 5.6 17 -8.3 36 36 WNW 10 17 30.16 1021 10 16 0.00 0.00
12:52 pm 12:52 Mostly Sunny 45 7.2 18 -7.8 34 34 NW 9 15 30.15 1021 10 16 0.00 0.00
1:52 pm 13:52 Partly Cloudy 47 8.3 18 -7.8 31 31 WSW 14 22 30.14 1021 10 16 0.00 0.00
2:52 pm 14:52 Partly Cloudy 48 8.9 17 -8.3 29 29 W 17 28 30.15 1021 10 16 0.00 0.00
3:52 pm 15:52 Mostly Sunny 49 9.4 17 -8.3 28 28 WSW 8 13 30.15 1021 10 16 0.00 0.00
4:52 pm 16:52 Mostly Sunny 49 9.4 17 -8.3 28 28 WNW 6 9 30.17 1022 10 16 0.00 0.00
5:52 pm 17:52 Sunny 46 7.8 19 -7.2 34 34 N 8 13 30.21 1023 10 16 0.00 0.00
6:52 pm 18:52 Clear 45 7.2 18 -7.8 34 34 NNW 7 11 30.24 1024 10 16 0.00 0.00
7:52 pm 19:52 Clear 44 6.7 21 -6.1 40 40 NE 6 9 30.26 1025 10 16 0.00 0.00
8:52 pm 20:52 Clear 44 6.7 24 -4.4 45 45 ENE 6 9 30.28 1025 10 16 0.00 0.00
9:52 pm 21:52 Mostly Clear 42 5.6 23 -5 47 47 SSE 5 7 30.30 1026 10 16 0.00 0.00
10:52 pm 22:52 Mostly Clear 42 5.6 22 -5.6 45 45 S 3 6 30.31 1026 10 16 0.00 0.00
11:52 pm 23:52 Clear 38 3.3 26 -3.3 62 62 SW 6 9 30.32 1027 10 16 0.00 0.00

Powered by AerisWeather